Location: Halle (Saale)
(51.4970°N, 11.9688°E)
Time: 03:20:38
(UTC+01:00)

ISS - Visible Passes

Search period start: 19 January 2021 00:00
Search period end: 29 January 2021 00:00
Orbit: 418 x 419 km, 51.6° (Epoch: 19 January)

Date Brightness Start Highest point End Pass type
(mag) Time Alt. Az. Time Alt. Az. Time Alt. Az.
19 Jan -0.9 19:30:04 10° SW 19:30:32 13° SSW 19:30:32 13° SSW visible
20 Jan -2.0 18:42:46 10° SSW 18:44:59 22° SSE 18:44:59 22° SSE visible
21 Jan -1.7 17:55:45 10° S 17:57:56 16° SE 17:59:22 13° ESE visible
21 Jan -1.5 19:30:54 10° WSW 19:32:19 23° SW 19:32:19 23° SW visible
22 Jan -3.2 18:43:18 10° SW 18:46:31 43° SSE 18:46:38 42° SSE visible
23 Jan -2.6 17:55:49 10° SW 17:58:51 31° SSE 18:00:53 17° E visible
23 Jan -1.8 19:32:02 10° WSW 19:33:50 29° WSW 19:33:50 29° WSW visible
24 Jan -3.8 18:44:17 10° WSW 18:47:39 71° SSE 18:48:03 61° ESE visible
25 Jan -3.4 17:56:34 10° WSW 17:59:53 56° SSE 18:02:14 18° E visible
25 Jan -1.9 19:33:15 10° W 19:35:10 31° W 19:35:10 31° W visible
26 Jan -3.9 18:45:26 10° W 18:48:49 88° N 18:49:20 62° E visible
26 Jan -0.1 20:22:15 10° W 20:22:16 10° W 20:22:16 10° W visible
27 Jan -3.8 17:57:37 10° WSW 18:01:00 83° S 18:03:28 17° E visible
27 Jan -2.0 19:34:26 10° W 19:36:25 33° W 19:36:25 33° W visible
28 Jan -3.9 18:46:36 10° W 18:49:58 87° N 18:50:34 58° E visible
28 Jan -0.2 20:23:25 10° W 20:23:30 11° W 20:23:30 11° W visible
